Location: Lecco
(45.8566°N, 9.3977°E)
Time: 19:52:38
(UTC+02:00)

Transit 2A Rocket - All Passes

Search period start: 14 August 2020 00:00
Search period end: 24 August 2020 00:00
Orbit: 584 x 919 km, 66.7° (Epoch: 13 August)

Date Brightness Start Highest point End Pass type
(mag) Time Alt. Az. Time Alt. Az. Time Alt. Az.
14 Aug - 05:08:16 10° SSW 05:13:58 63° ESE 05:20:01 10° NE visible
14 Aug - 06:51:50 10° WSW 06:57:05 31° NW 07:02:31 10° NNE daylight
14 Aug - 08:39:20 10° NW 08:41:47 12° NNW 08:44:15 10° N daylight
14 Aug - 10:26:26 10° N 10:27:24 10° N 10:28:22 10° NNE daylight
14 Aug - 12:07:53 10° NNW 12:12:31 22° NE 12:16:59 10° E daylight
14 Aug - 13:50:05 10° NNW 13:56:10 82° ENE 14:01:46 10° SE daylight
14 Aug - 15:34:11 10° WNW 15:37:59 18° WSW 15:41:38 10° SW daylight
15 Aug - 04:26:13 10° S 04:31:34 39° ESE 04:37:11 10° NE visible
15 Aug - 06:08:33 10° WSW 06:14:11 44° NW 06:20:05 10° NNE daylight
15 Aug - 07:55:03 10° WNW 07:58:29 15° NNW 08:01:58 10° N daylight
15 Aug - 11:25:33 10° NNW 11:29:23 17° NNE 11:33:07 10° ENE daylight
15 Aug - 13:07:32 10° NNW 13:13:29 54° NE 13:18:59 10° SE daylight
15 Aug - 14:50:46 10° NW 14:55:48 29° WSW 15:00:30 10° SSW daylight
16 Aug - 03:44:41 10° SSE 03:49:16 25° ESE 03:54:04 10° NE visible
16 Aug - 05:25:36 10° SW 05:31:26 66° NW 05:37:34 10° NNE visible
16 Aug - 07:11:02 10° WNW 07:15:18 19° NNW 07:19:38 10° NNE daylight
16 Aug - 10:43:14 10° N 10:46:07 13° NNE 10:48:58 10° NE daylight
16 Aug - 12:25:04 10° NNW 12:30:38 37° NE 12:35:54 10° ESE daylight
16 Aug - 14:07:46 10° NW 14:13:28 48° WSW 14:18:45 10° S daylight
17 Aug - 03:03:58 10° SE 03:07:07 15° ESE 03:10:21 10° ENE visible
17 Aug - 04:42:56 10° SSW 04:48:48 83° ESE 04:54:59 10° NE visible
17 Aug - 06:27:17 10° W 06:32:13 26° NW 06:37:16 10° NNE daylight
17 Aug - 08:15:26 10° NNW 08:17:09 11° NNW 08:18:52 10° N daylight
17 Aug - 10:01:00 10° N 10:02:48 11° NNE 10:04:34 10° NNE daylight
17 Aug - 11:42:38 10° NNW 11:47:42 26° NE 11:52:30 10° E daylight
17 Aug - 13:25:01 10° NW 13:31:01 76° WSW 13:36:33 10° SSE daylight
17 Aug - 15:10:16 10° WNW 15:12:32 12° W 15:14:44 10° WSW daylight
18 Aug - 04:00:39 10° S 04:06:18 53° ESE 04:12:15 10° NE visible
18 Aug - 05:43:49 10° WSW 05:49:15 35° NW 05:54:52 10° NNE visible
18 Aug - 07:30:59 10° NW 07:33:49 13° NNW 07:36:38 10° N daylight
18 Aug - 11:00:16 10° NNW 11:04:38 20° NNE 11:08:49 10° ENE daylight
18 Aug - 12:42:23 10° NNW 12:48:25 71° NE 12:53:59 10° SE daylight
18 Aug - 14:26:07 10° WNW 14:30:25 21° WSW 14:34:28 10° SSW daylight
19 Aug - 03:18:47 10° S 03:23:56 34° ESE 03:29:20 10° NE visible
19 Aug - 05:00:39 10° SW 05:06:24 51° NW 05:12:24 10° NNE visible
19 Aug - 06:46:47 10° WNW 06:50:33 17° NNW 06:54:20 10° NNE daylight
19 Aug - 10:17:57 10° N 10:21:26 15° NNE 10:24:51 10° ENE daylight
19 Aug - 11:59:52 10° NNW 12:05:41 47° NE 12:11:05 10° ESE daylight
19 Aug - 13:42:54 10° NW 13:48:11 35° WSW 13:53:06 10° S daylight
20 Aug - 02:37:28 10° SSE 02:41:41 21° ESE 02:46:05 10° ENE visible
20 Aug - 04:17:47 10° SW 04:23:41 76° NW 04:29:52 10° NNE visible
20 Aug - 06:02:51 10° W 06:07:24 21° NNW 06:12:00 10° NNE daylight
20 Aug - 07:51:45 10° NNW 07:52:33 10° N 07:53:21 10° N daylight
20 Aug - 09:35:40 10° N 09:38:09 12° NNE 09:40:36 10° NE daylight
20 Aug - 11:17:25 10° NNW 11:22:49 32° NE 11:27:53 10° ESE daylight
20 Aug - 13:00:00 10° NW 13:05:48 56° WSW 13:11:10 10° SSE daylight
21 Aug - 01:57:17 10° ESE 01:59:34 12° E 02:01:53 10° ENE visible
21 Aug - 03:35:16 10° SSW 03:41:06 72° ESE 03:47:14 10° NE visible
21 Aug - 05:19:12 10° W 05:24:21 29° NW 05:29:38 10° NNE visible
21 Aug - 07:07:02 10° NW 07:09:10 12° NNW 07:11:17 10° N daylight
21 Aug - 08:53:30 10° N 08:54:48 11° N 08:56:05 10° NNE daylight
21 Aug - 10:35:01 10° NNW 10:39:49 24° NE 10:44:23 10° E daylight
21 Aug - 12:17:17 10° NNW 12:23:18 88° WSW 12:28:49 10° SSE daylight
21 Aug - 14:01:51 10° WNW 14:04:58 15° WSW 14:07:59 10° SW daylight
22 Aug - 02:53:07 10° S 02:58:39 46° ESE 03:04:27 10° NE visible
22 Aug - 04:35:50 10° WSW 04:41:26 40° NW 04:47:12 10° NNE visible
22 Aug - 06:22:40 10° NW 06:25:51 14° NNW 06:29:02 10° N daylight
22 Aug - 09:52:40 10° NNW 09:56:42 18° NNE 10:00:36 10° ENE daylight
22 Aug - 11:34:42 10° NNW 11:40:40 61° NE 11:46:09 10° SE daylight
22 Aug - 13:18:09 10° NW 13:22:49 25° WSW 13:27:12 10° SSW daylight
23 Aug - 02:11:23 10° SSE 02:16:19 29° ESE 02:21:27 10° NE visible
23 Aug - 03:52:46 10° SW 03:58:38 58° NW 04:04:43 10° NNE visible
23 Aug - 05:38:33 10° WNW 05:42:37 18° NNW 05:46:43 10° NNE visible
23 Aug - 09:10:21 10° N 09:13:29 14° NNE 09:16:32 10° NE daylight
23 Aug - 10:52:13 10° NNW 10:57:52 41° NE 11:03:08 10° ESE daylight
23 Aug - 12:35:04 10° NW 12:40:32 41° WSW 12:45:36 10° S daylight
